Location: Haliburton Scout Reserve
(45.0900°N, 78.3200°W)
Time: 18:02:36
(UTC-05:00)

Courier 1B - Pass Details

Date: 01 December 2023
Orbit: 962 x 1209 km, 28.3° (Epoch: 23 February)

Event Time Altitude Azimuth Distance (km) Brightness Sun altitude
Rises 13:02:15 0° 240° (WSW) 3,637 11.2 21.7°
Reaches altitude 10° 13:05:50 10° 221° (SW) 2,684 11.2 21.5°
Maximum altitude 13:09:51 17° 182° (S) 2,203 11.4 21.3°
Drops below altitude 10° 13:13:54 10° 143° (SE) 2,709 10.4 21.1°
Sets 13:17:32 0° 124° (SE) 3,685 10.7 20.9°
